Flag for Switzerland Weather past 2 weeks in Riehen, Basel-Stadt, Switzerland

39 °F


Feels Like: 35 °F
Forecast: 47 / 52 °F
Wind: 6 mph from South

Location: Bale-Mulhouse

Current Time: Nov 29, 2015 at 1:08:39 AM

Latest Report: Nov 29, 2015 at 12:30 AM

Visibility: 10 mi

Pressure: 30.24 "Hg

Humidity: 75%

Dew point: 32 °F

Location of RiehenLocation

Historic Weather in Riehen — Graph


Riehen temperature yesterday

Maximum temperature yesterday: 43 °F (at 12:30 PM)
Minimum temperature yesterday: 28 °F (at 1:00 AM)
Average temperature yesterday: 36 °F

Past Weeks' High & Low Weather Summary

High66 °F (Nov 15, 2:30 PM)100% (Nov 16, 2:00 AM)30.51 "Hg (Nov 16, 2:00 AM)
Low23 °F (Nov 24, 5:30 AM)42% (Nov 16, 1:00 PM)29.45 "Hg (Nov 21, 12:30 PM)
Average44 °F81%30.05 "Hg
* Reported Nov 14 12:30 AM — Midnight between Nov 28 and Nov 29, Riehen, Weather by CustomWeather, © 2015

Note: Actual official high and low records may vary slightly from our data, if they occured in-between our weather recording intervals... More about our weather records


Riehen weather history for previous 24 hours

Time TempWeatherWind HumidityBarometerVisibility
12:00 AM
Sun, Nov 29
39 °FPassing clouds.6 mph75%30.24 "HgN/A
11:00 PM
Sat, Nov 28
37 °FPassing clouds.3 mph75%30.24 "HgN/A
10:30 PM36 °FPassing clouds.5 mph81%30.24 "HgN/A
9:30 PM34 °FClear.2 mph87%30.24 "Hg10 mi
9:00 PM34 °FPassing clouds.3 mph87%30.24 "HgN/A
8:30 PM36 °FPassing clouds.3 mph81%30.24 "HgN/A
8:00 PM34 °FClear.3 mph87%30.24 "Hg10 mi
7:30 PM34 °FPassing clouds.5 mph81%30.21 "HgN/A
7:00 PM36 °FPassing clouds.7 mph81%30.21 "HgN/A
6:30 PM34 °FPassing clouds.3 mph87%30.21 "HgN/A
6:00 PM36 °FPassing clouds.3 mph87%30.21 "HgN/A
5:30 PM37 °FPassing clouds.5 mph81%30.21 "HgN/A
5:00 PM39 °FPassing clouds.6 mph81%30.18 "HgN/A
4:30 PM41 °FPartly sunny.8 mph81%30.18 "HgN/A
4:00 PM39 °FPartly sunny.6 mph81%30.18 "HgN/A
3:30 PM41 °FScattered clouds.12 mph81%30.15 "HgN/A
3:00 PM43 °FPassing clouds.13 mph76%30.15 "HgN/A
2:30 PM43 °FPassing clouds.15 mph76%30.12 "HgN/A
2:00 PM43 °FScattered clouds.16 mph76%30.12 "HgN/A
1:30 PM43 °FScattered clouds.16 mph76%30.09 "HgN/A
1:00 PM43 °FScattered clouds.17 mph81%30.09 "HgN/A
12:30 PM43 °FScattered clouds.17 mph81%30.09 "HgN/A
12:00 PM41 °FBroken clouds.20 mph87%30.09 "HgN/A
11:30 AM41 °FBroken clouds.16 mph87%30.09 "HgN/A
11:00 AM39 °FBroken clouds.18 mph87%30.07 "HgN/A
10:30 AM37 °FBroken clouds.15 mph87%30.07 "HgN/A
10:00 AM36 °FFog.6 mph93%30.04 "Hg3 mi
9:30 AM34 °FFog.3 mph93%30.04 "Hg2 mi
9:00 AM34 °FFog.5 mph93%30.01 "Hg2 mi
8:30 AM32 °FIce fog.3 mph100%30.01 "Hg2 mi
8:00 AM34 °FLight snow. Fog.3 mph93%29.98 "Hg2 mi
7:30 AM34 °FLight snow. Fog.3 mph93%29.98 "Hg2 mi
7:00 AM34 °FPartly cloudy.5 mph93%29.95 "Hg4 mi
6:30 AM32 °FLight snow. Passing clouds.3 mph93%29.95 "Hg3 mi
5:30 AM32 °FPassing clouds.3 mph93%29.95 "Hg5 mi
5:00 AM32 °FPassing clouds.3 mph93%29.95 "Hg5 mi
4:30 AM30 °FPassing clouds.3 mph100%29.95 "Hg4 mi
4:00 AM30 °FPassing clouds.3 mph93%29.98 "Hg4 mi
3:30 AM30 °FLow clouds.2 mph93%29.98 "Hg5 mi
3:00 AM30 °FLow clouds.2 mph93%29.98 "Hg5 mi
2:30 AM30 °FClear.5 mph93%29.98 "Hg4 mi
2:00 AM28 °FPartly cloudy.1 mph100%29.98 "Hg4 mi
1:00 AM28 °FIce fog.2 mph100%29.98 "Hg1 mi
Weather by CustomWeather, © 2015

See weather overviewHow to use our weather pages